Location: Leiter
(44.7178°N, 106.2687°W)
Time: 03:40:55
(UTC+00:00)

Tiangong - Visible Passes

Search period start: 27 January 2022 00:00
Search period end: 06 February 2022 00:00
Orbit: 382 x 387 km, 41.5° (Epoch: 26 January)

Date Brightness Start Highest point End Pass type
(mag) Time Alt. Az. Time Alt. Az. Time Alt. Az.
27 Jan 3.6 01:29:32 10° SSE 01:30:16 11° SSE 01:30:28 11° SE visible
28 Jan 3.1 02:04:16 10° SW 02:05:57 20° S 02:05:57 20° S visible
29 Jan 3.2 01:05:11 10° SSW 01:07:17 17° SSE 01:09:08 11° ESE visible
29 Jan 4.1 02:40:39 10° WSW 02:41:21 15° WSW 02:41:21 15° WSW visible
30 Jan 2.2 01:41:05 10° SW 01:43:58 32° SSE 01:44:28 30° SE visible
31 Jan 2.8 00:41:38 10° SW 00:44:15 24° SSE 00:46:53 10° ESE visible
31 Jan 2.7 02:17:41 10° WSW 02:19:45 32° SW 02:19:45 32° SW visible
01 Feb 2.0 01:17:57 10° WSW 01:20:58 40° S 01:22:48 19° ESE visible
01 Feb 4.4 02:54:31 10° W 02:55:00 13° WSW 02:55:00 13° WSW visible
02 Feb 1.6 01:54:40 10° WSW 01:57:44 46° S 01:58:01 44° SSE visible
03 Feb 1.9 00:54:50 10° WSW 00:57:54 45° S 01:00:57 10° ESE visible
03 Feb 3.3 02:31:32 10° W 02:33:15 24° WSW 02:33:15 24° WSW visible
04 Feb 2.0 01:31:35 10° W 01:34:36 41° S 01:36:18 21° SE visible
05 Feb 2.8 02:08:31 10° WSW 02:11:13 25° SSW 02:11:35 25° S visible
